User: anonymous   Login
Location: Edinburgh
(55.9500°N, 3.1600°W)
Time: 07:48:24
(UTC+01:00)
Language:

CUTE 1.7 + AOD 2 - Orbit

View from above orbital plane
View from above orbital plane
View from above satellite
View from above satellite

Ground track
Ground track

The orbit data is extracted from the following two-line orbital elements,

1 32785U 08021C   24141.87193430  .00009458  00000-0  83701-3 0  9991
2 32785  97.7533 107.4376 0013099  62.4925 297.7625 14.96431367871467
Epoch (UTC): 20 May 2024 20:55:35
Eccentricity: 0.0013099
inclination: 97.7533°
perigee height: 569 km
apogee height: 587 km
right ascension of ascending node: 107.4376°
argument of perigee: 62.4925°
revolutions per day: 14.96431367
mean anomaly at epoch: 297.7625°
orbit number at epoch: 87146

The dashed part of the orbit path shows where the satellite is in the earth's shadow,  

DLR